| time (UTC) | temp C | wind direction | speed KPH | gust KPH | rain 1hr cm | rain 24hr cm | rain mn cm | humidity % | barometer mb |
| 20260507161503 | 13 | 340 | 6.4 | 24.1 | 0.00 | 0.81 | 0.00 | 43 | 1006.5 |
| 20260507161024 | 13 | 334 | 8.0 | 22.5 | 0.00 | 0.81 | 0.00 | 47 | 1006.5 |
| 20260507160524 | 13 | 323 | 8.0 | 20.9 | 0.00 | 0.81 | 0.00 | 46 | 1006.7 |
| 20260507160024 | 13 | 329 | 9.7 | 25.7 | 0.00 | 0.81 | 0.00 | 44 | 1006.5 |
| 20260507155503 | 13 | 338 | 12.9 | 25.7 | 0.00 | 0.81 | 0.00 | 43 | 1006.9 |
| 20260507155002 | 13 | 322 | 9.7 | 25.7 | 0.00 | 0.81 | 0.00 | 46 | 1007.0 |
| 20260507154502 | 13 | 285 | 6.4 | 25.7 | 0.00 | 0.81 | 0.00 | 48 | 1006.8 |
| 20260507154003 | 13 | 316 | 6.4 | 25.7 | 0.00 | 0.81 | 0.00 | 47 | 1006.9 |
| 20260507153503 | 13 | 341 | 8.0 | 20.9 | 0.00 | 0.81 | 0.00 | 49 | 1006.8 |
| 20260507153003 | 13 | 336 | 9.7 | 24.1 | 0.00 | 0.81 | 0.00 | 47 | 1006.9 |
| 20260507152503 | 13 | 332 | 12.9 | 38.6 | 0.00 | 0.81 | 0.00 | 49 | 1007.0 |
| 20260507152024 | 13 | 333 | 11.3 | 38.6 | 0.00 | 0.81 | 0.00 | 47 | 1007.1 |
| 20260507151503 | 13 | 330 | 9.7 | 22.5 | 0.00 | 0.81 | 0.00 | 47 | 1007.1 |
| 20260507151003 | 13 | 305 | 8.0 | 20.9 | 0.00 | 0.81 | 0.00 | 52 | 1007.1 |
| 20260507150503 | 13 | 260 | 6.4 | 17.7 | 0.00 | 0.81 | 0.00 | 50 | 1007.0 |
| 20260507150002 | 13 | 288 | 8.0 | 29.0 | 0.00 | 0.81 | 0.00 | 51 | 1007.2 |
| 20260507145503 | 13 | 282 | 6.4 | 29.0 | 0.00 | 0.81 | 0.00 | 56 | 1007.1 |
| 20260507145024 | 13 | 220 | 3.2 | 11.3 | 0.00 | 0.81 | 0.00 | 54 | 1006.9 |
| 20260507144524 | 12 | 212 | 3.2 | 11.3 | 0.00 | 0.81 | 0.00 | 61 | 1006.7 |
| 20260507144002 | 12 | 202 | 3.2 | 12.9 | 0.00 | 0.81 | 0.00 | 62 | 1006.9 |
| 20260507143503 | 12 | 285 | 3.2 | 12.9 | 0.00 | 0.81 | 0.00 | 65 | 1007.1 |
| 20260507143002 | 12 | 276 | 3.2 | 12.9 | 0.00 | 0.81 | 0.00 | 64 | 1006.7 |
| 20260507142502 | 12 | 246 | 3.2 | 12.9 | 0.00 | 0.81 | 0.00 | 68 | 1007.1 |
| 20260507142002 | 12 | 246 | 3.2 | 12.9 | 0.00 | 0.81 | 0.00 | 65 | 1007.1 |
| 20260507141524 | 12 | 236 | 3.2 | 16.1 | 0.00 | 0.81 | 0.00 | 66 | 1007.1 |
| 20260507141023 | 13 | 237 | 4.8 | 16.1 | 0.00 | 0.81 | 0.00 | 62 | 1006.9 |
| 20260507140503 | 13 | 270 | 4.8 | 12.9 | 0.00 | 0.81 | 0.00 | 67 | 1006.8 |
| 20260507140023 | 12 | 276 | 3.2 | 12.9 | 0.00 | 0.81 | 0.00 | 66 | 1006.7 |
| 20260507135502 | 11 | 278 | 3.2 | 12.9 | 0.00 | 0.81 | 0.00 | 69 | 1006.7 |
| 20260507135024 | 11 | 283 | 3.2 | 12.9 | 0.00 | 0.81 | 0.00 | 69 | 1006.8 |
| 20260507134524 | 12 | 214 | 1.6 | 12.9 | 0.00 | 0.81 | 0.00 | 71 | 1006.8 |
| 20260507134003 | 11 | 303 | 4.8 | 12.9 | 0.00 | 0.81 | 0.00 | 71 | 1007.0 |
| 20260507133503 | 11 | 306 | 4.8 | 12.9 | 0.00 | 0.81 | 0.00 | 70 | 1007.0 |
| 20260507133003 | 11 | 226 | 3.2 | 11.3 | 0.00 | 0.81 | 0.00 | 70 | 1007.2 |
| 20260507132502 | 11 | 278 | 4.8 | 20.9 | 0.00 | 0.81 | 0.00 | 68 | 1007.2 |
| 20260507132003 | 12 | 307 | 4.8 | 20.9 | 0.00 | 0.81 | 0.00 | 66 | 1007.2 |
| 20260507131502 | 12 | 297 | 4.8 | 14.5 | 0.00 | 0.81 | 0.00 | 69 | 1007.1 |
| 20260507131024 | 12 | 317 | 6.4 | 14.5 | 0.00 | 0.81 | 0.00 | 68 | 1007.1 |
| 20260507130503 | 12 | 324 | 8.0 | 17.7 | 0.00 | 0.81 | 0.00 | 66 | 1007.3 |
| 20260507130003 | 12 | 321 | 6.4 | 20.9 | 0.00 | 0.81 | 0.00 | 69 | 1007.3 |
| 20260507125503 | 12 | 290 | 4.8 | 20.9 | 0.00 | 0.81 | 0.00 | 68 | 1007.4 |
| 20260507125002 | 11 | 278 | 4.8 | 17.7 | 0.00 | 0.81 | 0.00 | 69 | 1007.4 |
| 20260507124503 | 11 | 322 | 6.4 | 17.7 | 0.00 | 0.81 | 0.00 | 69 | 1007.3 |
| 20260507124002 | 11 | 336 | 6.4 | 14.5 | 0.00 | 0.81 | 0.00 | 72 | 1007.1 |
| 20260507123503 | 11 | 331 | 6.4 | 14.5 | 0.00 | 0.81 | 0.00 | 71 | 1007.3 |
| 20260507123002 | 11 | 302 | 6.4 | 17.7 | 0.00 | 0.81 | 0.00 | 71 | 1007.3 |
| 20260507122503 | 11 | 285 | 4.8 | 17.7 | 0.00 | 0.81 | 0.00 | 71 | 1007.0 |
| 20260507122003 | 11 | 285 | 4.8 | 16.1 | 0.00 | 0.81 | 0.00 | 72 | 1007.1 |
| 20260507121523 | 11 | 287 | 3.2 | 17.7 | 0.00 | 0.81 | 0.00 | 73 | 1007.6 |
| 20260507121003 | 10 | 322 | 4.8 | 17.7 | 0.00 | 0.81 | 0.00 | 75 | 1007.4 |
| 20260507120502 | 10 | 345 | 4.8 | 16.1 | 0.00 | 0.81 | 0.00 | 77 | 1007.3 |
| 20260507120003 | 10 | 331 | 4.8 | 16.1 | 0.00 | 0.81 | 0.00 | 78 | 1007.4 |
| 20260507115524 | 10 | 308 | 3.2 | 12.9 | 0.00 | 0.81 | 0.00 | 78 | 1007.3 |
| 20260507115003 | 10 | 197 | 1.6 | 9.7 | 0.00 | 0.81 | 0.00 | 85 | 1007.4 |
| 20260507114503 | 10 | 219 | 1.6 | 11.3 | 0.00 | 0.81 | 0.00 | 86 | 1007.5 |
| 20260507114003 | 9 | 220 | 3.2 | 11.3 | 0.00 | 0.81 | 0.00 | 87 | 1007.3 |
| 20260507113503 | 8 | 257 | 3.2 | 11.3 | 0.00 | 0.81 | 0.00 | 89 | 1007.3 |
| 20260507113003 | 8 | 256 | 3.2 | 11.3 | 0.00 | 0.81 | 0.00 | 90 | 1006.9 |
| 20260507112502 | 8 | 236 | 1.6 | 6.4 | 0.00 | 0.81 | 0.00 | 93 | 1007.1 |
| 20260507112003 | 7 | 275 | 0.0 | 6.4 | 0.00 | 0.81 | 0.00 | 93 | 1007.4 |
| 20260507111503 | 7 | 0 | 0.0 | 0.0 | 0.00 | 0.81 | 0.00 | 93 | 1007.3 |
| 20260507111003 | 6 | 0 | 0.0 | 0.0 | 0.00 | 0.81 | 0.00 | 93 | 1007.1 |
| 20260507110503 | 6 | 0 | 0.0 | 0.0 | 0.00 | 0.81 | 0.00 | 93 | 1007.1 |
| 20260507110003 | 6 | 0 | 0.0 | 0.0 | 0.00 | 0.81 | 0.00 | 93 | 1007.2 |
| 20260507105524 | 6 | 0 | 0.0 | 0.0 | 0.00 | 0.81 | 0.00 | 93 | 1007.2 |
| 20260507105002 | 6 | 0 | 0.0 | 0.0 | 0.00 | 0.81 | 0.00 | 92 | 1006.9 |
| 20260507104524 | 6 | 0 | 0.0 | 0.0 | 0.00 | 0.81 | 0.00 | 92 | 1006.7 |
| 20260507104003 | 6 | 0 | 0.0 | 0.0 | 0.00 | 0.81 | 0.00 | 91 | 1006.8 |
| 20260507103503 | 6 | 0 | 0.0 | 0.0 | 0.00 | 0.81 | 0.00 | 91 | 1006.8 |
| 20260507103003 | 6 | 211 | 0.0 | 1.6 | 0.00 | 0.81 | 0.00 | 91 | 1006.8 |
| 20260507102503 | 6 | 199 | 0.0 | 1.6 | 0.00 | 0.81 | 0.00 | 91 | 1006.9 |
| 20260507102003 | 6 | 191 | 0.0 | 1.6 | 0.00 | 0.81 | 0.00 | 91 | 1007.0 |
| 20260507101503 | 6 | 195 | 0.0 | 3.2 | 0.00 | 0.81 | 0.00 | 91 | 1007.2 |
| 20260507101024 | 7 | 198 | 0.0 | 3.2 | 0.00 | 0.81 | 0.00 | 91 | 1006.9 |
| 20260507100503 | 7 | 195 | 1.6 | 3.2 | 0.00 | 0.81 | 0.00 | 91 | 1006.4 |
| 20260507100003 | 7 | 184 | 0.0 | 1.6 | 0.00 | 0.81 | 0.00 | 91 | 1006.8 |
| 20260507095524 | 7 | 0 | 0.0 | 0.0 | 0.00 | 0.81 | 0.00 | 90 | 1007.1 |
| 20260507095024 | 7 | 185 | 0.0 | 1.6 | 0.00 | 0.81 | 0.00 | 91 | 1007.0 |
| 20260507094503 | 7 | 185 | 0.0 | 1.6 | 0.00 | 0.81 | 0.00 | 91 | 1006.5 |
| 20260507094003 | 7 | 0 | 0.0 | 0.0 | 0.00 | 0.81 | 0.00 | 90 | 1006.8 |
| 20260507093502 | 7 | 0 | 0.0 | 0.0 | 0.00 | 0.81 | 0.00 | 90 | 1007.0 |
| 20260507093003 | 7 | 189 | 0.0 | 3.2 | 0.00 | 0.81 | 0.00 | 90 | 1007.1 |
| 20260507092503 | 7 | 196 | 1.6 | 3.2 | 0.00 | 0.81 | 0.00 | 90 | 1006.9 |
| 20260507092003 | 7 | 197 | 1.6 | 3.2 | 0.00 | 0.81 | 0.00 | 90 | 1007.0 |
| 20260507091503 | 7 | 194 | 0.0 | 3.2 | 0.00 | 0.81 | 0.00 | 90 | 1007.1 |
| 20260507091003 | 7 | 0 | 0.0 | 0.0 | 0.00 | 0.81 | 0.00 | 89 | 1007.2 |
| 20260507090503 | 7 | 0 | 0.0 | 0.0 | 0.00 | 0.81 | 0.00 | 89 | 1007.3 |
| 20260507090002 | 7 | 0 | 0.0 | 0.0 | 0.00 | 0.81 | 0.00 | 89 | 1007.3 |
| 20260507085502 | 7 | 196 | 0.0 | 1.6 | 0.00 | 0.81 | 0.00 | 89 | 1007.5 |
| 20260507085003 | 7 | 196 | 0.0 | 1.6 | 0.00 | 0.81 | 0.00 | 89 | 1007.0 |
| 20260507084503 | 7 | 198 | 0.0 | 1.6 | 0.00 | 0.81 | 0.00 | 89 | 1006.4 |
| 20260507084024 | 7 | 203 | 0.0 | 3.2 | 0.00 | 0.81 | 0.00 | 89 | 1006.8 |
| 20260507083524 | 7 | 223 | 1.6 | 4.8 | 0.00 | 0.81 | 0.00 | 89 | 1007.0 |
| 20260507083003 | 7 | 223 | 1.6 | 4.8 | 0.00 | 0.81 | 0.00 | 89 | 1006.6 |
| 20260507082502 | 7 | 213 | 1.6 | 4.8 | 0.00 | 0.81 | 0.00 | 89 | 1006.6 |
| 20260507082003 | 7 | 216 | 1.6 | 4.8 | 0.00 | 0.81 | 0.00 | 88 | 1006.9 |
| 20260507081503 | 7 | 214 | 3.2 | 3.2 | 0.00 | 0.81 | 0.00 | 88 | 1006.5 |
| 20260507081002 | 8 | 248 | 3.2 | 9.7 | 0.00 | 0.81 | 0.00 | 88 | 1006.8 |
| 20260507080503 | 8 | 287 | 1.6 | 9.7 | 0.00 | 0.81 | 0.00 | 88 | 1006.5 |
| 20260507080003 | 8 | 228 | 0.0 | 4.8 | 0.00 | 0.81 | 0.00 | 88 | 1006.4 |
| 20260507075502 | 7 | 193 | 0.0 | 1.6 | 0.00 | 0.81 | 0.00 | 88 | 1006.5 |
| 20260507075002 | 7 | 193 | 0.0 | 1.6 | 0.00 | 0.81 | 0.00 | 88 | 1006.9 |
| 20260507074503 | 8 | 194 | 0.0 | 1.6 | 0.00 | 0.81 | 0.00 | 88 | 1007.0 |
| 20260507074003 | 8 | 205 | 0.0 | 3.2 | 0.00 | 0.81 | 0.00 | 88 | 1006.8 |
| 20260507073503 | 8 | 206 | 0.0 | 3.2 | 0.00 | 0.81 | 0.00 | 88 | 1006.7 |
| 20260507073003 | 8 | 199 | 0.0 | 3.2 | 0.00 | 0.81 | 0.00 | 88 | 1006.4 |
| 20260507072503 | 8 | 200 | 0.0 | 3.2 | 0.00 | 0.81 | 0.00 | 88 | 1006.5 |
| 20260507072003 | 8 | 204 | 0.0 | 3.2 | 0.00 | 0.81 | 0.00 | 88 | 1006.5 |
| 20260507071503 | 8 | 0 | 0.0 | 0.0 | 0.00 | 0.81 | 0.00 | 88 | 1006.1 |
| 20260507071003 | 8 | 208 | 0.0 | 1.6 | 0.00 | 0.81 | 0.00 | 88 | 1006.4 |
| 20260507070503 | 8 | 212 | 0.0 | 3.2 | 0.00 | 0.81 | 0.00 | 88 | 1006.4 |
| 20260507070004 | 8 | 253 | 3.2 | 9.7 | 0.00 | 0.81 | 0.00 | 88 | 1006.4 |
| 20260507065503 | 8 | 268 | 4.8 | 9.7 | 0.00 | 0.81 | 0.00 | 88 | 1006.0 |
| 20260507065003 | 8 | 282 | 4.8 | 14.5 | 0.00 | 0.81 | 0.00 | 88 | 1006.3 |
| 20260507064503 | 8 | 317 | 6.4 | 14.5 | 0.00 | 0.81 | 0.00 | 88 | 1006.3 |
| 20260507064003 | 8 | 323 | 6.4 | 14.5 | 0.00 | 0.81 | 0.00 | 89 | 1006.4 |
| 20260507063503 | 8 | 317 | 6.4 | 14.5 | 0.00 | 0.81 | 0.00 | 90 | 1006.4 |
| 20260507063003 | 8 | 305 | 4.8 | 14.5 | 0.00 | 0.81 | 0.00 | 90 | 1006.7 |
| 20260507062503 | 8 | 281 | 3.2 | 9.7 | 0.00 | 0.81 | 0.00 | 91 | 1006.7 |
| 20260507062003 | 8 | 239 | 1.6 | 9.7 | 0.00 | 0.81 | 0.00 | 91 | 1006.4 |
| 20260507061503 | 8 | 217 | 1.6 | 6.4 | 0.00 | 0.81 | 0.00 | 92 | 1006.4 |
| 20260507061003 | 8 | 242 | 1.6 | 6.4 | 0.00 | 0.81 | 0.00 | 92 | 1006.4 |
| 20260507060503 | 8 | 235 | 1.6 | 6.4 | 0.00 | 0.81 | 0.00 | 92 | 1006.4 |
| 20260507060003 | 8 | 211 | 1.6 | 4.8 | 0.00 | 0.81 | 0.00 | 92 | 1006.2 |
| 20260507055503 | 8 | 207 | 0.0 | 4.8 | 0.00 | 0.81 | 0.00 | 92 | 1006.2 |
| 20260507055003 | 8 | 196 | 0.0 | 4.8 | 0.00 | 0.81 | 0.00 | 92 | 1006.6 |
| 20260507054503 | 8 | 224 | 1.6 | 4.8 | 0.00 | 0.81 | 0.00 | 92 | 1006.6 |
| 20260507054003 | 8 | 215 | 1.6 | 4.8 | 0.00 | 0.81 | 0.00 | 92 | 1006.6 |
| 20260507053503 | 8 | 193 | 1.6 | 3.2 | 0.00 | 0.81 | 0.00 | 92 | 1006.4 |
| 20260507053003 | 8 | 188 | 0.0 | 3.2 | 0.00 | 0.81 | 0.00 | 91 | 1006.6 |
| 20260507052524 | 8 | 180 | 0.0 | 1.6 | 0.00 | 0.81 | 0.00 | 92 | 1006.4 |
| 20260507052003 | 8 | 186 | 0.0 | 1.6 | 0.00 | 0.81 | 0.00 | 92 | 1006.2 |
| 20260507051502 | 8 | 182 | 0.0 | 1.6 | 0.00 | 0.81 | 0.00 | 92 | 1006.5 |
| 20260507051003 | 8 | 221 | 0.0 | 4.8 | 0.00 | 0.81 | 0.00 | 92 | 1006.4 |
| 20260507050503 | 8 | 221 | 0.0 | 4.8 | 0.00 | 0.81 | 0.00 | 92 | 1006.4 |
| 20260507050003 | 8 | 282 | 1.6 | 6.4 | 0.00 | 0.81 | 0.00 | 92 | 1006.3 |
| 20260507045503 | 8 | 246 | 3.2 | 6.4 | 0.00 | 0.81 | 0.00 | 92 | 1006.2 |
| 20260507045003 | 9 | 239 | 3.2 | 11.3 | 0.00 | 0.81 | 0.00 | 92 | 1006.2 |
| 20260507044524 | 9 | 270 | 3.2 | 11.3 | 0.00 | 0.81 | 0.00 | 92 | 1006.1 |
| 20260507044003 | 9 | 249 | 3.2 | 11.3 | 0.00 | 0.81 | 0.00 | 92 | 1006.2 |
| 20260507043503 | 9 | 231 | 1.6 | 6.4 | 0.00 | 0.81 | 0.00 | 92 | 1006.1 |
| 20260507043003 | 9 | 234 | 3.2 | 6.4 | 0.00 | 0.81 | 0.00 | 92 | 1006.3 |
| 20260507042503 | 9 | 229 | 3.2 | 9.7 | 0.00 | 0.81 | 0.00 | 92 | 1006.4 |
| 20260507042003 | 9 | 237 | 3.2 | 9.7 | 0.00 | 0.81 | 0.00 | 92 | 1006.5 |
| 20260507041524 | 9 | 254 | 3.2 | 9.7 | 0.00 | 0.81 | 0.00 | 92 | 1006.7 |
| 20260507041024 | 9 | 261 | 3.2 | 11.3 | 0.00 | 0.81 | 0.00 | 92 | 1006.4 |
| 20260507040502 | 9 | 295 | 3.2 | 20.9 | 0.00 | 0.81 | 0.00 | 92 | 1006.6 |
| 20260507040024 | 9 | 297 | 3.2 | 20.9 | 0.03 | 0.81 | 0.00 | 92 | 1006.5 |
| 20260507035503 | 10 | 249 | 1.6 | 12.9 | 0.05 | 0.81 | 0.81 | 92 | 1006.6 |
| 20260507035003 | 10 | 248 | 1.6 | 12.9 | 0.10 | 0.81 | 0.81 | 92 | 1006.4 |
| 20260507034503 | 10 | 244 | 1.6 | 11.3 | 0.13 | 0.81 | 0.81 | 93 | 1006.5 |
| 20260507034003 | 10 | 230 | 1.6 | 11.3 | 0.15 | 0.81 | 0.81 | 93 | 1006.2 |
| 20260507033503 | 10 | 228 | 1.6 | 9.7 | 0.15 | 0.81 | 0.81 | 93 | 1006.3 |
| 20260507033003 | 10 | 257 | 3.2 | 11.3 | 0.15 | 0.81 | 0.81 | 93 | 1006.2 |
| 20260507032524 | 10 | 265 | 4.8 | 11.3 | 0.15 | 0.81 | 0.81 | 92 | 1006.2 |
| 20260507032003 | 10 | 287 | 4.8 | 17.7 | 0.15 | 0.81 | 0.81 | 93 | 1006.1 |
| 20260507031503 | 10 | 314 | 4.8 | 17.7 | 0.18 | 0.81 | 0.81 | 93 | 1006.2 |
| 20260507031024 | 10 | 315 | 6.4 | 14.5 | 0.18 | 0.81 | 0.81 | 93 | 1006.1 |
| 20260507030503 | 10 | 293 | 4.8 | 14.5 | 0.18 | 0.81 | 0.81 | 93 | 1006.1 |
| 20260507030003 | 11 | 306 | 4.8 | 12.9 | 0.15 | 0.79 | 0.79 | 93 | 1006.2 |
| 20260507025503 | 11 | 294 | 3.2 | 12.9 | 0.13 | 0.76 | 0.76 | 93 | 1006.4 |
| 20260507025003 | 11 | 274 | 3.2 | 9.7 | 0.10 | 0.74 | 0.74 | 93 | 1006.4 |
| 20260507024503 | 11 | 310 | 6.4 | 14.5 | 0.05 | 0.71 | 0.71 | 92 | 1006.2 |
| 20260507024003 | 11 | 300 | 6.4 | 14.5 | 0.05 | 0.69 | 0.69 | 92 | 1006.1 |
| 20260507023502 | 12 | 307 | 6.4 | 14.5 | 0.08 | 0.69 | 0.69 | 92 | 1006.0 |
| 20260507023003 | 12 | 313 | 4.8 | 14.5 | 0.08 | 0.69 | 0.69 | 93 | 1005.9 |
| 20260507022524 | 12 | 263 | 3.2 | 14.5 | 0.10 | 0.66 | 0.66 | 93 | 1005.9 |
| 20260507022003 | 12 | 237 | 3.2 | 11.3 | 0.25 | 0.66 | 0.66 | 93 | 1005.9 |
| 20260507021524 | 12 | 234 | 1.6 | 11.3 | 0.33 | 0.64 | 0.64 | 93 | 1005.5 |
| 20260507021003 | 13 | 249 | 1.6 | 12.9 | 0.33 | 0.64 | 0.64 | 93 | 1005.3 |
| 20260507020524 | 13 | 234 | 1.6 | 12.9 | 0.33 | 0.64 | 0.64 | 92 | 1005.4 |
| 20260507020002 | 13 | 208 | 1.6 | 12.9 | 0.33 | 0.64 | 0.64 | 92 | 1005.1 |
| 20260507015503 | 13 | 224 | 1.6 | 12.9 | 0.33 | 0.64 | 0.64 | 92 | 1005.3 |
| 20260507015003 | 13 | 216 | 1.6 | 9.7 | 0.33 | 0.64 | 0.64 | 92 | 1004.9 |
| 20260507014503 | 13 | 213 | 1.6 | 4.8 | 0.33 | 0.64 | 0.64 | 92 | 1004.9 |
| 20260507014003 | 13 | 297 | 4.8 | 16.1 | 0.33 | 0.64 | 0.64 | 92 | 1005.0 |
| 20260507013503 | 14 | 300 | 4.8 | 16.1 | 0.28 | 0.61 | 0.61 | 92 | 1005.0 |
| 20260507013003 | 15 | 228 | 3.2 | 11.3 | 0.28 | 0.61 | 0.61 | 92 | 1004.9 |
| 20260507012523 | 15 | 209 | 1.6 | 9.7 | 0.25 | 0.56 | 0.56 | 93 | 1004.8 |
| 20260507012003 | 15 | 203 | 1.6 | 4.8 | 0.10 | 0.41 | 0.41 | 93 | 1004.6 |
| 20260507011524 | 15 | 195 | 1.6 | 4.8 | 0.00 | 0.33 | 0.33 | 93 | 1004.5 |
| 20260507011003 | 15 | 191 | 1.6 | 4.8 | 0.00 | 0.33 | 0.33 | 93 | 1004.3 |
| 20260507010524 | 15 | 188 | 1.6 | 4.8 | 0.00 | 0.33 | 0.33 | 93 | 1004.3 |
| 20260507010003 | 15 | 193 | 1.6 | 4.8 | 0.00 | 0.33 | 0.33 | 93 | 1004.2 |
| 20260507005503 | 15 | 193 | 1.6 | 6.4 | 0.00 | 0.33 | 0.33 | 93 | 1004.3 |
| 20260507005003 | 15 | 187 | 1.6 | 6.4 | 0.00 | 0.33 | 0.33 | 93 | 1004.2 |
| 20260507004524 | 15 | 194 | 1.6 | 6.4 | 0.00 | 0.33 | 0.33 | 93 | 1004.2 |
| 20260507004003 | 15 | 197 | 1.6 | 6.4 | 0.00 | 0.33 | 0.33 | 93 | 1004.2 |
| 20260507003502 | 15 | 196 | 1.6 | 4.8 | 0.00 | 0.33 | 0.33 | 93 | 1004.1 |
| 20260507003024 | 15 | 197 | 1.6 | 9.7 | 0.00 | 0.33 | 0.33 | 93 | 1004.0 |
| 20260507002503 | 15 | 199 | 0.0 | 9.7 | 0.00 | 0.33 | 0.33 | 93 | 1003.7 |
| 20260507002003 | 15 | 189 | 0.0 | 3.2 | 0.00 | 0.36 | 0.33 | 93 | 1003.8 |
| 20260507001503 | 15 | 194 | 0.0 | 4.8 | 0.00 | 0.36 | 0.33 | 93 | 1004.1 |
| 20260507001003 | 15 | 196 | 1.6 | 6.4 | 0.00 | 0.36 | 0.33 | 93 | 1004.0 |
| 20260507000503 | 15 | 192 | 1.6 | 6.4 | 0.00 | 0.36 | 0.33 | 93 | 1003.9 |
| 20260507000003 | 15 | 195 | 1.6 | 9.7 | 0.00 | 0.36 | 0.33 | 93 | 1003.8 |
| 20260506235502 | 15 | 201 | 1.6 | 12.9 | 0.00 | 0.36 | 0.33 | 93 | 1003.8 |
| 20260506235003 | 15 | 203 | 1.6 | 12.9 | 0.00 | 0.36 | 0.33 | 93 | 1003.8 |
| 20260506234503 | 15 | 195 | 1.6 | 11.3 | 0.00 | 0.36 | 0.33 | 93 | 1003.5 |
| 20260506234003 | 15 | 191 | 1.6 | 11.3 | 0.00 | 0.36 | 0.33 | 93 | 1003.6 |
| 20260506233503 | 15 | 188 | 1.6 | 9.7 | 0.00 | 0.36 | 0.33 | 93 | 1003.7 |
| 20260506233003 | 15 | 185 | 0.0 | 6.4 | 0.00 | 0.36 | 0.33 | 93 | 1003.5 |
| 20260506232503 | 15 | 186 | 0.0 | 4.8 | 0.00 | 0.36 | 0.33 | 93 | 1003.9 |
| 20260506232003 | 15 | 194 | 1.6 | 11.3 | 0.00 | 0.36 | 0.33 | 93 | 1003.7 |
| 20260506231503 | 15 | 199 | 1.6 | 11.3 | 0.00 | 0.36 | 0.33 | 93 | 1004.0 |
| 20260506231003 | 15 | 198 | 1.6 | 9.7 | 0.00 | 0.36 | 0.33 | 93 | 1003.9 |
| 20260506230524 | 15 | 197 | 1.6 | 6.4 | 0.00 | 0.36 | 0.33 | 93 | 1003.8 |
| 20260506230003 | 15 | 197 | 1.6 | 6.4 | 0.00 | 0.36 | 0.33 | 93 | 1003.8 |
| 20260506225503 | 15 | 197 | 1.6 | 9.7 | 0.00 | 0.36 | 0.33 | 93 | 1003.8 |
| 20260506225003 | 15 | 195 | 1.6 | 9.7 | 0.00 | 0.36 | 0.33 | 93 | 1003.7 |
| 20260506224503 | 15 | 199 | 1.6 | 9.7 | 0.00 | 0.36 | 0.33 | 93 | 1003.8 |
| 20260506224003 | 15 | 205 | 3.2 | 11.3 | 0.00 | 0.36 | 0.33 | 93 | 1003.7 |
| 20260506223503 | 15 | 204 | 3.2 | 11.3 | 0.00 | 0.36 | 0.33 | 93 | 1003.9 |
| 20260506223003 | 15 | 195 | 1.6 | 6.4 | 0.00 | 0.36 | 0.33 | 93 | 1003.8 |
| 20260506222524 | 15 | 192 | 1.6 | 6.4 | 0.00 | 0.36 | 0.33 | 93 | 1003.7 |
| 20260506222003 | 15 | 193 | 1.6 | 6.4 | 0.00 | 0.36 | 0.33 | 93 | 1003.8 |
| 20260506221503 | 15 | 193 | 1.6 | 6.4 | 0.00 | 0.36 | 0.33 | 93 | 1004.1 |
| 20260506221003 | 15 | 192 | 1.6 | 4.8 | 0.00 | 0.36 | 0.33 | 93 | 1003.9 |
| 20260506220503 | 15 | 198 | 1.6 | 4.8 | 0.00 | 0.36 | 0.33 | 93 | 1004.0 |
| 20260506220003 | 15 | 198 | 3.2 | 11.3 | 0.00 | 0.36 | 0.33 | 93 | 1004.0 |
| 20260506215503 | 15 | 196 | 1.6 | 11.3 | 0.00 | 0.36 | 0.33 | 93 | 1004.1 |
| 20260506215003 | 15 | 196 | 1.6 | 11.3 | 0.00 | 0.36 | 0.33 | 93 | 1004.2 |
| 20260506214503 | 15 | 196 | 3.2 | 11.3 | 0.00 | 0.36 | 0.33 | 93 | 1004.0 |
| 20260506214003 | 16 | 199 | 3.2 | 12.9 | 0.00 | 0.36 | 0.33 | 93 | 1003.9 |
| 20260506213503 | 16 | 197 | 3.2 | 12.9 | 0.00 | 0.36 | 0.33 | 93 | 1003.9 |
| 20260506213003 | 15 | 201 | 3.2 | 12.9 | 0.00 | 0.36 | 0.33 | 93 | 1003.8 |
| 20260506212524 | 16 | 195 | 3.2 | 12.9 | 0.00 | 0.36 | 0.33 | 93 | 1004.1 |
| 20260506212003 | 16 | 189 | 3.2 | 11.3 | 0.00 | 0.36 | 0.33 | 93 | 1004.1 |
| 20260506211503 | 16 | 195 | 3.2 | 9.7 | 0.00 | 0.36 | 0.33 | 93 | 1004.2 |
| 20260506211003 | 16 | 199 | 3.2 | 11.3 | 0.00 | 0.36 | 0.33 | 93 | 1004.2 |
| 20260506210503 | 16 | 203 | 3.2 | 11.3 | 0.00 | 0.36 | 0.33 | 93 | 1004.1 |
| 20260506210003 | 16 | 205 | 4.8 | 16.1 | 0.00 | 0.36 | 0.33 | 93 | 1004.1 |
| 20260506205503 | 16 | 205 | 4.8 | 20.9 | 0.03 | 0.36 | 0.33 | 93 | 1004.1 |
| 20260506205003 | 16 | 200 | 3.2 | 20.9 | 0.03 | 0.36 | 0.33 | 93 | 1004.1 |
| 20260506204503 | 16 | 196 | 3.2 | 16.1 | 0.05 | 0.36 | 0.33 | 93 | 1004.3 |
| 20260506204003 | 16 | 194 | 3.2 | 16.1 | 0.08 | 0.36 | 0.33 | 93 | 1004.3 |
| 20260506203524 | 16 | 193 | 3.2 | 11.3 | 0.08 | 0.36 | 0.33 | 93 | 1004.3 |
| 20260506203003 | 16 | 191 | 1.6 | 11.3 | 0.13 | 0.36 | 0.33 | 93 | 1004.2 |
| 20260506202503 | 16 | 186 | 1.6 | 6.4 | 0.13 | 0.36 | 0.33 | 93 | 1004.2 |
| 20260506202003 | 16 | 189 | 1.6 | 9.7 | 0.13 | 0.36 | 0.33 | 93 | 1004.3 |
| 20260506201503 | 16 | 191 | 1.6 | 9.7 | 0.13 | 0.36 | 0.33 | 93 | 1004.5 |
| 20260506201024 | 16 | 195 | 1.6 | 6.4 | 0.13 | 0.36 | 0.33 | 93 | 1004.5 |
| 20260506200503 | 16 | 201 | 1.6 | 6.4 | 0.13 | 0.36 | 0.33 | 93 | 1004.6 |
| 20260506200003 | 16 | 192 | 1.6 | 9.7 | 0.13 | 0.36 | 0.33 | 92 | 1004.4 |
| 20260506195524 | 16 | 186 | 1.6 | 9.7 | 0.10 | 0.33 | 0.28 | 92 | 1004.7 |
| 20260506195003 | 16 | 197 | 1.6 | 9.7 | 0.10 | 0.33 | 0.28 | 92 | 1004.7 |
| 20260506194524 | 16 | 194 | 1.6 | 9.7 | 0.08 | 0.30 | 0.28 | 92 | 1004.6 |
| 20260506194003 | 16 | 187 | 1.6 | 6.4 | 0.08 | 0.28 | 0.25 | 92 | 1004.9 |
| 20260506193503 | 16 | 190 | 1.6 | 6.4 | 0.08 | 0.28 | 0.25 | 92 | 1004.9 |
| 20260506193003 | 16 | 189 | 1.6 | 6.4 | 0.03 | 0.23 | 0.20 | 92 | 1004.8 |
| 20260506192524 | 16 | 193 | 1.6 | 12.9 | 0.03 | 0.23 | 0.20 | 92 | 1004.7 |
| 20260506192002 | 16 | 196 | 1.6 | 12.9 | 0.03 | 0.23 | 0.20 | 91 | 1005.0 |
| 20260506191503 | 16 | 191 | 0.0 | 6.4 | 0.05 | 0.23 | 0.20 | 92 | 1004.9 |
| 20260506191024 | 16 | 196 | 0.0 | 3.2 | 0.05 | 0.23 | 0.20 | 92 | 1004.8 |
| 20260506190524 | 16 | 194 | 0.0 | 3.2 | 0.05 | 0.23 | 0.20 | 92 | 1004.7 |
| 20260506190003 | 16 | 188 | 0.0 | 4.8 | 0.08 | 0.23 | 0.20 | 91 | 1004.8 |
| 20260506185503 | 16 | 190 | 0.0 | 4.8 | 0.08 | 0.23 | 0.20 | 91 | 1004.7 |
| 20260506185024 | 16 | 195 | 0.0 | 4.8 | 0.10 | 0.23 | 0.20 | 91 | 1005.0 |
| 20260506184503 | 16 | 189 | 0.0 | 4.8 | 0.10 | 0.23 | 0.20 | 91 | 1005.1 |
| 20260506184003 | 16 | 179 | 0.0 | 3.2 | 0.13 | 0.20 | 0.18 | 91 | 1005.7 |
| 20260506183524 | 16 | 183 | 1.6 | 6.4 | 0.13 | 0.20 | 0.18 | 91 | 1005.4 |
| 20260506183024 | 16 | 190 | 1.6 | 6.4 | 0.15 | 0.20 | 0.18 | 90 | 1005.5 |
| 20260506182503 | 16 | 198 | 1.6 | 6.4 | 0.15 | 0.20 | 0.18 | 90 | 1005.9 |
| 20260506182003 | 16 | 199 | 1.6 | 4.8 | 0.15 | 0.20 | 0.18 | 90 | 1005.9 |
| 20260506181503 | 16 | 192 | 1.6 | 4.8 | 0.15 | 0.18 | 0.15 | 90 | 1005.8 |
| 20260506181024 | 16 | 190 | 1.6 | 4.8 | 0.15 | 0.18 | 0.15 | 90 | 1005.8 |
| 20260506180503 | 16 | 190 | 1.6 | 4.8 | 0.15 | 0.18 | 0.15 | 89 | 1005.9 |
| 20260506180024 | 16 | 184 | 1.6 | 11.3 | 0.13 | 0.15 | 0.13 | 89 | 1005.9 |
| 20260506175503 | 16 | 188 | 1.6 | 11.3 | 0.13 | 0.15 | 0.13 | 88 | 1006.1 |
| 20260506175003 | 16 | 195 | 1.6 | 6.4 | 0.10 | 0.15 | 0.10 | 86 | 1006.1 |
| 20260506174524 | 16 | 192 | 1.6 | 9.7 | 0.10 | 0.13 | 0.10 | 85 | 1006.3 |
| 20260506174003 | 17 | 190 | 3.2 | 9.7 | 0.05 | 0.10 | 0.10 | 84 | 1006.3 |
| 20260506173503 | 17 | 187 | 1.6 | 4.8 | 0.05 | 0.10 | 0.05 | 83 | 1006.5 |
| 20260506173003 | 17 | 187 | 1.6 | 3.2 | 0.05 | 0.08 | 0.05 | 81 | 1006.5 |
| 20260506172503 | 17 | 189 | 1.6 | 4.8 | 0.03 | 0.05 | 0.03 | 79 | 1006.2 |
| 20260506172024 | 18 | 192 | 1.6 | 4.8 | 0.03 | 0.05 | 0.03 | 76 | 1006.2 |
| 20260506171503 | 18 | 200 | 1.6 | 6.4 | 0.00 | 0.03 | 0.00 | 75 | 1006.1 |
| 20260506171003 | 18 | 200 | 3.2 | 14.5 | 0.00 | 0.03 | 0.00 | 72 | 1006.3 |
| 20260506170503 | 19 | 187 | 3.2 | 14.5 | 0.00 | 0.03 | 0.00 | 69 | 1006.0 |
| 20260506170003 | 20 | 184 | 3.2 | 14.5 | 0.00 | 0.03 | 0.00 | 68 | 1006.2 |
| 20260506165503 | 20 | 196 | 4.8 | 14.5 | 0.00 | 0.03 | 0.00 | 66 | 1005.7 |
| 20260506165024 | 20 | 198 | 4.8 | 17.7 | 0.00 | 0.03 | 0.00 | 64 | 1005.8 |
| 20260506164503 | 20 | 193 | 3.2 | 17.7 | 0.00 | 0.03 | 0.00 | 65 | 1005.7 |
| 20260506164024 | 20 | 193 | 3.2 | 14.5 | 0.00 | 0.03 | 0.00 | 66 | 1005.9 |
| 20260506163503 | 20 | 202 | 3.2 | 14.5 | 0.00 | 0.03 | 0.00 | 66 | 1006.2 |
| 20260506163003 | 20 | 202 | 3.2 | 12.9 | 0.00 | 0.03 | 0.00 | 65 | 1006.1 |
| 20260506162503 | 20 | 205 | 3.2 | 12.9 | 0.00 | 0.03 | 0.00 | 66 | 1006.4 |
| 20260506162003 | 20 | 214 | 3.2 | 11.3 | 0.00 | 0.03 | 0.00 | 65 | 1006.2 |